Time,TemperatureF,DewpointF,PressureIn,WindDirection,WindDirectionDegrees,WindSpeedMPH,WindSpeedGustMPH,Humidity,HourlyPrecipIn,Conditions,Clouds,dailyrainin,SoftwareType,DateUTC
2013-02-27 01:00:00,-1.0,-99.9,-100.00,North,-999,-999.0,-999.0,-999,-99.99,,,0.01,,2013-02-27 08:00:00,
2013-02-27 01:53:00,-1.0,-99.9,-100.00,North,-999,-999.0,-999.0,-999,-99.99,,,0.01,,2013-02-27 08:53:00,
2013-02-27 02:00:00,-2.0,-99.9,-100.00,North,-999,-999.0,-999.0,-999,-99.99,,,0.01,,2013-02-27 09:00:00,
2013-02-27 02:52:00,-2.0,-99.9,-100.00,North,-999,-999.0,-999.0,-999,-99.99,,,0.01,,2013-02-27 09:52:00,
2013-02-27 03:00:00,-2.0,-99.9,-100.00,North,-999,-999.0,-999.0,-999,-99.99,,,0.01,,2013-02-27 10:00:00,
2013-02-27 03:53:00,-2.0,-99.9,-100.00,North,-999,-999.0,-999.0,-999,-99.99,,,0.01,,2013-02-27 10:53:00,
2013-02-27 05:00:00,-3.0,-99.9,-100.00,North,-999,-999.0,-999.0,-999,-99.99,,,0.00,,2013-02-27 12:00:00,
2013-02-27 05:53:00,-3.0,-99.9,-100.00,North,-999,-999.0,-999.0,-999,-99.99,,,0.00,,2013-02-27 12:53:00,
2013-02-27 06:00:00,-4.0,-99.9,-100.00,North,-999,-999.0,-999.0,-999,-99.99,,,0.01,,2013-02-27 13:00:00,
2013-02-27 06:53:00,-4.0,-99.9,-100.00,North,-999,-999.0,-999.0,-999,-99.99,,,0.01,,2013-02-27 13:53:00,
2013-02-27 07:00:00,-5.0,-99.9,-100.00,North,-999,-999.0,-999.0,-999,-99.99,,,-99.99,,2013-02-27 14:00:00,
2013-02-27 07:53:00,-5.0,-99.9,-100.00,North,-999,-999.0,-999.0,-999,-99.99,,,-99.99,,2013-02-27 14:53:00,
2013-02-27 08:00:00,-1.0,-99.9,-100.00,North,-999,-999.0,-999.0,-999,-99.99,,,0.00,,2013-02-27 15:00:00,
2013-02-27 08:53:00,-1.0,-99.9,-100.00,North,-999,-999.0,-999.0,-999,-99.99,,,0.00,,2013-02-27 15:53:00,
2013-02-27 09:00:00,2.0,-99.9,-100.00,North,-999,-999.0,-999.0,-999,-99.99,,,0.00,,2013-02-27 16:00:00,
2013-02-27 09:53:00,2.0,-99.9,-100.00,North,-999,-999.0,-999.0,-999,-99.99,,,0.00,,2013-02-27 16:53:00,
2013-02-27 10:00:00,13.0,-99.9,-100.00,North,-999,-999.0,-999.0,-999,-99.99,,,0.00,,2013-02-27 17:00:00,
2013-02-27 10:52:00,13.0,-99.9,-100.00,North,-999,-999.0,-999.0,-999,-99.99,,,0.00,,2013-02-27 17:52:00,
2013-02-27 12:00:00,16.0,-99.9,-100.00,North,-999,-999.0,-999.0,-999,-99.99,,,0.00,,2013-02-27 19:00:00,
2013-02-27 12:53:00,16.0,-99.9,-100.00,North,-999,-999.0,-999.0,-999,-99.99,,,0.00,,2013-02-27 19:53:00,
2013-02-27 13:00:00,17.0,-99.9,-100.00,North,-999,-999.0,-999.0,-999,-99.99,,,-99.99,,2013-02-27 20:00:00,
2013-02-27 14:00:00,20.0,-99.9,-100.00,North,-999,-999.0,-999.0,-999,-99.99,,,0.00,,2013-02-27 21:00:00,
2013-02-27 14:52:00,20.0,-99.9,-100.00,North,-999,-999.0,-999.0,-999,-99.99,,,0.00,,2013-02-27 21:52:00,
2013-02-27 15:00:00,21.0,-99.9,-100.00,North,-999,-999.0,-999.0,-999,-99.99,,,0.00,,2013-02-27 22:00:00,
2013-02-27 15:52:00,21.0,-99.9,-100.00,North,-999,-999.0,-999.0,-999,-99.99,,,0.00,,2013-02-27 22:52:00,
2013-02-27 16:00:00,17.0,-99.9,-100.00,North,-999,-999.0,-999.0,-999,-99.99,,,0.00,,2013-02-27 23:00:00,
2013-02-27 16:53:00,17.0,-99.9,-100.00,North,-999,-999.0,-999.0,-999,-99.99,,,0.00,,2013-02-27 23:53:00,
2013-02-27 17:52:00,12.0,-99.9,-100.00,North,-999,-999.0,-999.0,-999,-99.99,,,0.00,,2013-02-28 00:52:00,
2013-02-27 18:00:00,6.0,-99.9,-100.00,North,-999,-999.0,-999.0,-999,-99.99,,,0.00,,2013-02-28 01:00:00,
2013-02-27 18:52:00,6.0,-99.9,-100.00,North,-999,-999.0,-999.0,-999,-99.99,,,0.00,,2013-02-28 01:52:00,
2013-02-27 20:00:00,-1.0,-99.9,-100.00,North,-999,-999.0,-999.0,-999,-99.99,,,-99.99,,2013-02-28 03:00:00,
2013-02-27 20:52:00,-1.0,-99.9,-100.00,North,-999,-999.0,-999.0,-999,-99.99,,,-99.99,,2013-02-28 03:52:00,
2013-02-27 22:00:00,-3.0,-99.9,-100.00,North,-999,-999.0,-999.0,-999,-99.99,,,-99.99,,2013-02-28 05:00:00,
2013-02-27 22:52:00,-3.0,-99.9,-100.00,North,-999,-999.0,-999.0,-999,-99.99,,,-99.99,,2013-02-28 05:52:00,
2013-02-27 23:00:00,-3.0,-99.9,-100.00,North,-999,-999.0,-999.0,-999,-99.99,,,0.00,,2013-02-28 06:00:00,
2013-02-27 23:52:00,-3.0,-99.9,-100.00,North,-999,-999.0,-999.0,-999,-99.99,,,0.00,,2013-02-28 06:52:00,